Location: Unspecified
(42.3650°N, 71.1030°W)
Time: 16:27:26
(UTC+00:00)

S-56A Canister/Altair - Pass Details

Date: 04 July 2024
Orbit: 638 x 2487 km, 38.9° (Epoch: 20 July)

Event Time Altitude Azimuth Distance (km) Brightness Sun altitude
Rises 03:15:57 0° 279° (W) 4,122 11.7 -21.4°
Reaches altitude 10° 03:18:33 10° 272° (W) 3,377 11.1 -21.5°
Maximum altitude 03:26:44 43° 205° (SSW) 2,286 9.5 -22.1°
Enters shadow 03:31:13 32° 162° (SSE) 2,942 9.9 -22.4°
